Terug naar catalogus

FREGAT DEB

LostUNKNOWN
NORAD 46258·DEBRIS·🇷🇺 Russia

Gelanceerd Jul 18, 2011 vanaf Baikonur Cosmodrome

Loading…

Volgende Passages (komende 24 uur)

TLE

VerouderdSource: Space-Track

Epoch: Aug 21, 2021, 13:35 UTC

1 46258U 11037KU  21233.56628784 -.00015210  00000-0 -12836-1 0  9996
2 46258  51.6604 305.3187 2413977 263.9791  68.3334  9.92853432 35815

Volg FREGAT DEB in realtime met AllMySat

Download on the App Store